Lid_Strength_Index
5 4 3 3 3 4 3 2 6 1 -0 5 5 8 6 7 5 4 5 7 8 7 7 8 9 9 7 6 6 8 6 8 10 9 6 5 6 7 7 11 12 10 15 16
5 4 3 3 3 3 1 4 4 0 1 7 6 5 6 5 6 6 6 6 6 6 7 9 8 7 6 5 6 8 7 8 11 10 8 6 8 7 7 7 8 11 15 16
4 4 2 3 3 2 1 4 6 3 3 3 5 6 6 7 5 5 5 6 5 6 7 6 8 7 6 5 5 5 6 8 9 13 10 8 9 8 7 8 10 10 14 14
4 4 2 3 3 2 1 3 5 4 6 5 5 5 6 7 7 5 5 6 6 6 8 8 8 6 6 5 6 5 6 10 8 8 8 8 8 8 8 8 8 11 13 13
4 3 3 2 3 3 2 4 5 3 4 5 5 6 6 7 6 6 7 6 6 6 7 8 9 7 6 7 5 6 6 9 8 9 8 9 9 8 8 8 8 10 10 12
4 2 3 2 3 3 2 2 1 3 7 5 6 6 6 6 5 5 5 5 6 6 6 5 4 4 4 5 6 7 7 8 9 11 8 9 11 9 8 7 7 7 12 10
4 2 2 2 2 2 1 1 2 5 6 5 6 5 5 6 5 6 5 4 5 4 3 3 4 4 5 5 5 5 7 8 8 11 9 13 8 6 6 7 6 6 8 8
4 2 2 2 1 2 0 0 2 4 6 5 5 5 5 5 4 5 5 4 3 2 4 6 8 8 7 6 6 6 5 7 9 11 11 9 8 7 7 7 7 6 8 7
3 2 2 2 1 0 1 0 0 3 5 5 4 5 5 6 6 5 5 3 2 3 5 7 10 11 10 9 8 5 5 6 9 9 12 13 10 6 5 5 10 5 6 7
3 3 3 2 -0 -0 1 1 -1 2 5 3 3 5 5 4 5 6 5 4 4 3 6 8 9 10 8 14 11 10 8 8 10 10 11 9 6 5 5 10 10 5 5 6
4 4 2 1 -1 -0 1 1 -1 2 4 3 2 2 4 4 4 6 5 5 5 5 8 8 9 10 9 11 9 9 10 10 11 9 11 12 5 6 8 7 4 4 4 6
4 4 2 0 -1 -0 1 2 -1 -1 3 3 1 1 1 2 2 4 4 5 5 5 7 7 8 10 9 9 12 6 10 8 10 9 10 5 4 5 4 4 4 4 4 4
4 4 2 1 -0 -0 0 1 -0 1 3 3 3 3 1 -0 1 0 5 3 3 4 3 6 7 10 7 10 10 8 6 5 8 8 6 6 5 4 4 3 4 3 3 4
4 3 2 1 0 0 1 1 -0 1 2 5 5 1 2 0 0 1 1 2 2 2 3 5 6 8 5 8 7 8 6 6 7 7 6 5 4 4 3 3 3 3 2 2
3 3 2 1 1 1 1 -1 -1 -1 3 6 5 2 1 1 1 1 1 2 3 4 5 6 8 6 7 6 6 8 6 6 9 9 5 5 5 3 3 3 3 3 3 3
3 2 2 1 1 2 1 3 -0 -1 0 4 6 2 3 1 1 2 3 3 4 4 6 6 5 5 7 10 10 6 5 4 4 6 4 4 3 3 2 3 3 2 2 2
3 2 2 2 2 1 2 4 2 2 -0 4 7 6 3 2 2 2 3 2 4 4 5 6 6 7 6 8 11 6 5 4 4 3 4 5 3 4 2 2 2 2 2 2
2 3 2 2 2 3 2 -0 0 1 2 3 8 7 5 2 5 5 3 5 4 4 5 5 7 6 7 11 7 5 4 4 4 4 3 3 3 3 3 3 3 3 3 3
2 2 2 1 2 2 2 0 -0 -1 2 7 6 8 9 3 4 4 4 4 8 4 7 7 6 8 12 8 6 6 4 5 5 4 4 3 4 4 3 3 4 4 4 4
2 1 2 4 2 2 1 2 3 3 3 3 6 4 7 4 5 5 6 5 7 10 7 5 7 9 5 4 4 3 4 4 3 5 5 4 4 4 4 4 3 3 3 3
1 3 4 1 1 1 2 5 6 4 6 4 4 4 6 3 6 7 6 7 7 11 8 8 9 9 6 4 4 3 3 3 3 3 3 3 4 4 4 4 3 3 2 3
2 2 -0 0 3 4 7 7 5 6 8 5 5 6 4 4 3 5 5 8 7 11 5 9 11 7 5 4 3 3 3 3 3 3 3 3 3 3 3 3 3 3 2 2
-0 2 5 5 5 11 10 10 8 8 5 5 5 6 5 4 4 5 6 9 9 5 8 12 9 5 4 3 3 3 2 2 2 2 2 2 2 2 2 3 2 2 2 2
4 7 12 8 9 8 7 6 6 4 4 4 4 5 6 4 7 6 9 7 6 10 12 11 7 5 4 3 2 3 3 3 3 3 2 2 2 3 2 2 2 2 3 4
5 6 12 8 6 5 4 3 3 3 2 3 5 5 5 6 7 6 7 9 10 9 10 7 5 4 3 3 3 3 3 3 3 2 2 2 2 2 2 1 1 1 2 3
4 5 7 6 6 6 4 4 4 3 3 3 4 6 7 8 7 8 9 10 10 8 6 5 4 4 3 3 2 2 2 2 2 2 2 2 2 2 2 1 1 1 2 3
5 6 4 5 5 5 5 4 3 2 4 6 6 8 8 6 9 9 7 9 7 5 5 4 4 3 3 2 2 2 2 2 2 2 2 2 1 2 2 3 2 1 1 1